Columbia Owens, SC

5:29 AM EST on November 13, 2019 (GMT -0500)
Columbia Owens Downtown

Weather History for KCUB - September, 2019

Change the Weather History Date:

Sunday, September 8, 2019

  Actual Average Record
Temperature  
Mean Temperature 83 °F 78 °F  
Max Temperature 96 °F 88 °F 96 °F (2016)
Min Temperature 69 °F 68 °F 58 °F (2017)
Degree Days  
Heating Degree Days 0 0  
Month to date heating degree days 0 0  
Since 1 July heating degree days 0 0  
Cooling Degree Days 18 13  
Month to date cooling degree days 140 109  
Year to date cooling degree days 2263 1927  
Growing Degree Days 32 (Base 50)    
Moisture  
Dew Point 65 °F    
Average Humidity 61    
Maximum Humidity 90    
Minimum Humidity 34    
Precipitation  
Precipitation 0.00 in 0.14 in 1.52 in (2003)
Month to date precipitation 0.61 1.13  
Year to date precipitation 23.79 32.98  
Sea Level Pressure  
Sea Level Pressure 29.97 in    
Wind  
Wind Speed 3 mph (NW)    
Max Wind Speed 13 mph    
Max Gust Speed 18 mph    
Visibility 10 miles    
Events      
T = Trace of Precipitation, MM = Missing Value Source: NWS Daily Summary

Daily Weather History Graph

Daily Weather History Graph

Search for Another Location

Airport or City:

Astronomy

Sep. 08, 2019 Rise Set
Actual Time 7:02 AM EDT 7:40 PM EDT
Civil Twilight 6:37 AM EDT 8:05 PM EDT
Nautical Twilight 6:07 AM EDT 8:35 PM EDT
Astronomical Twilight 5:36 AM EDT 9:05 PM EDT
Moon 4:34 PM EDT (9/8) 1:53 AM EDT (9/8)
Length of Visible Light 13h 28m
Length of Day
12h 38m
Waxing Gibbous, 75% of the Moon is Illuminated
Sep 8
Waxing Gibbous
Sep 14
Full
Sep 21
Last Quarter
Sep 28
New
Oct 5
First Quarter

Hourly Weather History & Observations

Time (EDT) Temp. Heat Index Dew Point Humidity Pressure Visibility Wind Dir Wind Speed Gust Speed Precip Events Conditions
12:53 AM 75.9 °F - 66.9 °F 74% 29.92 in 10.0 mi Calm Calm - N/A   Clear
1:53 AM 75.9 °F - 66.0 °F 71% 29.92 in 10.0 mi Calm Calm - N/A   Scattered Clouds
2:53 AM 73.9 °F - 66.0 °F 76% 29.92 in 10.0 mi Calm Calm - N/A   Clear
3:53 AM 73.0 °F - 66.0 °F 79% 29.91 in 10.0 mi Calm Calm - N/A   Mostly Cloudy
4:53 AM 72.0 °F - 66.0 °F 81% 29.92 in 10.0 mi Calm Calm - N/A   Partly Cloudy
5:53 AM 70.0 °F - 66.0 °F 87% 29.93 in 10.0 mi Calm Calm - N/A   Clear
6:53 AM 69.1 °F - 64.9 °F 87% 29.96 in 10.0 mi Calm Calm - N/A   Clear
7:53 AM 70.0 °F - 64.9 °F 84% 29.98 in 10.0 mi Calm Calm - N/A   Clear
8:53 AM 73.0 °F - 66.0 °F 79% 30.00 in 10.0 mi Calm Calm - N/A   Clear
9:53 AM 78.1 °F - 68.0 °F 71% 30.01 in 10.0 mi Variable 3.5 mph - N/A   Clear
10:53 AM 81.0 °F 84.1 °F 69.1 °F 67% 30.02 in 10.0 mi Variable 3.5 mph - N/A   Clear
11:53 AM 87.1 °F 89.9 °F 66.9 °F 51% 30.01 in 10.0 mi West 5.8 mph - N/A   Clear
12:53 PM 91.0 °F 93.0 °F 64.9 °F 42% 30.00 in 10.0 mi Variable 4.6 mph - N/A   Clear
1:53 PM 93.0 °F 95.0 °F 64.9 °F 39% 29.98 in 10.0 mi Variable 6.9 mph - N/A   Clear
2:53 PM 96.1 °F 99.3 °F 66.0 °F 37% 29.96 in 10.0 mi NW 5.8 mph - N/A   Clear
3:53 PM 95.0 °F 97.0 °F 64.0 °F 36% 29.96 in 10.0 mi NW 9.2 mph 18.4 mph N/A   Clear
4:53 PM 95.0 °F 96.0 °F 63.0 °F 34% 29.96 in 10.0 mi WNW 11.5 mph - N/A   Clear
5:53 PM 93.9 °F 95.6 °F 64.0 °F 37% 29.96 in 10.0 mi NW 8.1 mph - N/A   Clear
6:53 PM 93.0 °F 93.8 °F 62.1 °F 36% 29.97 in 10.0 mi NW 4.6 mph - N/A   Clear
7:53 PM 87.1 °F 87.8 °F 63.0 °F 44% 29.99 in 10.0 mi Calm Calm - N/A   Clear
8:53 PM 82.0 °F 83.8 °F 64.9 °F 56% 30.00 in 10.0 mi Calm Calm - N/A   Clear
9:53 PM 81.0 °F 82.5 °F 64.0 °F 56% 30.03 in 10.0 mi Calm Calm - N/A   Clear
10:53 PM 78.1 °F - 66.0 °F 66% 30.04 in 10.0 mi Calm Calm - N/A   Clear
11:53 PM 77.0 °F - 66.0 °F 69% 30.04 in 10.0 mi Calm Calm - N/A   Clear